Miscellaneous Local Product
Issued by NWS Hastings, NE

Home | Current Version | Previous Version | Graphics & Text | Print | Product List | Glossary On
Versions: 1 2 3 4 5 6 7 8 9 10 11 12 13 14 15 16 17 18 19 20 21 22 23 24 25 26 27 28 29 30 31 32 33 34 35 36 37 38 39 40 41 42 43 44 45 46 47 48 49 50
000
AXUS43 KGID 302002
MISGRI

GID CWA HOURLY WEATHER ROUNDUP
NATIONAL WEATHER SERVICE HASTINGS NE
300 PM CDT THU OCT 30 2014

NOTE: "FAIR" INDICATES FEW OR NO CLOUDS BELOW 12,000 FEET WITH NO
SIGNIFICANT WEATHER AND/OR OBSTRUCTIONS TO VISIBILITY.

...SOUTH CENTRAL NEBRASKA...

CITY           SKY/WX    TMP DP  RH WIND       PRES   REMARKS
GRAND ISLAND   SUNNY     63  35  35 N23       30.17S
HASTINGS       SUNNY     63  32  31 N25G32    30.17S
KEARNEY        SUNNY     64  30  27 NW23G32   30.20S
ORD            SUNNY     60  34  37 N22G36    30.19S
YORK           SUNNY     63  37  39 N21G29    30.15R
AURORA         SUNNY     62  31  31 N23G32    30.16S
LEXINGTON      SUNNY     65  32  29 N24G31    30.22S
HOLDREGE       SUNNY     63  30  28 N20G32    30.20S
HEBRON         SUNNY     66  31  27 NW16G26   30.12S

...NEBRASKA PANHANDLE...

CITY           SKY/WX    TMP DP  RH WIND       PRES   REMARKS
CHADRON        MOSUNNY   60  33  36 NW13      30.29F
ALLIANCE       SUNNY     60  32  34 N15       30.29F
SCOTTSBLUFF    MOSUNNY   63  32  31 VRB7      30.30F
SIDNEY         SUNNY     61  31  32 N20       30.32F

...WESTERN AND NORTH CENTRAL NEBRASKA...

CITY           SKY/WX    TMP DP  RH WIND       PRES   REMARKS
VALENTINE      SUNNY     54  33  45 N20G25    30.28S
AINSWORTH      SUNNY     53  34  48 N23G30    30.27R
ONEILL         SUNNY     55  37  49 N20G28    30.22R
BROKEN BOW     SUNNY     62  34  35 N24G35    30.21S
IMPERIAL       SUNNY     64  30  27 N21       30.27F
NORTH PLATTE   SUNNY     64  31  28 N23G31    30.24F
MCCOOK         SUNNY     68  29  23 N20       30.23F

...EASTERN NEBRASKA...

CITY           SKY/WX    TMP DP  RH WIND       PRES   REMARKS
NORFOLK        SUNNY     58  38  47 NW18G31   30.15R
SO SIOUX CITY  MOSUNNY   57  40  52 NW24G31   30.10R
TEKAMAH        SUNNY     62  40  44 NW24G35   30.09S
COLUMBUS         N/A    N/A N/A N/A MISG        N/A
ALBION         SUNNY     58  35  41 N18G31    30.17R
OMAHA EPPLEY   MOSUNNY   62  41  46 N23G31    30.07S
MILLARD        MOSUNNY   62  42  47 NW21G28   30.08S
LINCOLN        SUNNY     64  39  39 N24G32    30.11S
NEBRASKA CITY  SUNNY     63  35  35 NW17G24   30.07R
BEATRICE       SUNNY     63  40  42 N17G32    30.10S
FALLS CITY     SUNNY     66  40  38 NW22G30   30.05R

...NORTHERN KANSAS...

CITY           SKY/WX    TMP DP  RH WIND       PRES   REMARKS
GOODLAND       SUNNY     66  27  23 N12       30.29F
HILL CITY      SUNNY     69  30  23 NW20G28   30.21F
NORTON         CLEAR     68  23  18 NW17G26   30.20F
PHILLIPSBURG   SUNNY     72  30  21 NW24G30   30.19S HAZE
SMITH CENTER   SUNNY     66  32  28 NW23G35   30.17S
BELOIT         SUNNY     70  34  26 NW21G29   30.13S
HAYS           SUNNY     68  34  28 NW17G26   30.20F
RUSSELL        SUNNY     69  34  27 NW22G30   30.16F
CONCORDIA      SUNNY     68  36  30 NW16G29   30.12S
SALINA         SUNNY     72  34  24 NW25G33   30.12F
TOPEKA         SUNNY     69  39  33 NW17G31   30.05S



USA.gov is the U.S. government's official web portal to all federal, state and local government web resources and services.